| time (UTC) | temp F | wind direction | speed knots | gust knots | rain 1hr in | rain 24hr in | rain mn in | humidity % | barometer mb |
| 20260831183051 | 90 | 259 | 0.9 | 1.7 | 0.00 | 0.00 | 0.00 | 72 | 1011.1 |
| 20260831182410 | 90 | 245 | 1.7 | 1.7 | 0.00 | 0.00 | 0.00 | 74 | 1011.1 |
| 20260831181832 | 90 | 278 | 0.9 | 0.9 | 0.00 | 0.00 | 0.00 | 74 | 1011.1 |
| 20260831180635 | 89 | 166 | 0.9 | 0.9 | 0.00 | 0.00 | 0.00 | 74 | 1011.1 |
| 20260831180034 | 90 | 329 | 2.6 | 2.6 | 0.00 | 0.00 | 0.00 | 71 | 1011.1 |
| 20260831175420 | 90 | 161 | 0.9 | 0.9 | 0.00 | 0.00 | 0.00 | 73 | 1011.5 |
| 20260831174808 | 90 | 88 | 1.7 | 1.7 | 0.00 | 0.00 | 0.00 | 76 | 1011.1 |
| 20260831174228 | 89 | 188 | 0.9 | 0.9 | 0.00 | 0.00 | 0.00 | 75 | 1011.5 |
| 20260831173651 | 89 | 32 | 1.7 | 2.6 | 0.00 | 0.00 | 0.00 | 76 | 1011.5 |
| 20260831172427 | 88 | 8 | 1.7 | 1.7 | 0.00 | 0.00 | 0.00 | 77 | 1011.5 |
| 20260831171229 | 87 | 273 | 1.7 | 1.7 | 0.00 | 0.00 | 0.00 | 77 | 1011.5 |
| 20260831170623 | 86 | 120 | 0.0 | 0.9 | 0.00 | 0.00 | 0.00 | 76 | 1011.8 |
| 20260831165439 | 87 | 347 | 2.6 | 3.5 | 0.00 | 0.00 | 0.00 | 77 | 1011.5 |
| 20260831164824 | 86 | 126 | 0.9 | 0.9 | 0.00 | 0.00 | 0.00 | 79 | 1011.8 |
| 20260831164248 | 86 | 122 | 0.0 | 0.9 | 0.00 | 0.00 | 0.00 | 80 | 1011.5 |
| 20260831163634 | 86 | 283 | 0.9 | 1.7 | 0.00 | 0.00 | 0.00 | 82 | 1011.8 |
| 20260831163030 | 85 | 253 | 0.9 | 1.7 | 0.00 | 0.00 | 0.00 | 83 | 1011.8 |
| 20260831162440 | 85 | 58 | 0.9 | 1.7 | 0.00 | 0.00 | 0.00 | 82 | 1011.8 |
| 20260831161808 | 84 | 355 | 2.6 | 3.5 | 0.00 | 0.00 | 0.00 | 85 | 1011.5 |
| 20260831161228 | 82 | 236 | 1.7 | 1.7 | 0.00 | 0.00 | 0.00 | 85 | 1011.8 |
| 20260831160646 | 82 | 353 | 2.6 | 2.6 | 0.00 | 0.00 | 0.00 | 86 | 1011.8 |
| 20260831160050 | 81 | 253 | 1.7 | 2.6 | 0.00 | 0.00 | 0.00 | 88 | 1011.8 |
| 20260831155441 | 81 | 81 | 0.9 | 0.9 | 0.00 | 0.00 | 0.00 | 90 | 1011.8 |
| 20260831154218 | 79 | 184 | 0.9 | 1.7 | 0.00 | 0.00 | 0.00 | 95 | 1011.8 |
| 20260831153648 | 78 | 136 | 0.0 | 0.0 | 0.00 | 0.00 | 0.00 | 95 | 1011.8 |
| 20260831153042 | 78 | 157 | 0.0 | 0.9 | 0.00 | 0.00 | 0.00 | 97 | 1011.8 |
| 20260831152407 | 77 | 131 | 0.0 | 0.0 | 0.00 | 0.00 | 0.00 | 98 | 1012.1 |
| 20260831151247 | 76 | 156 | 0.0 | 0.0 | 0.00 | 0.00 | 0.00 | 99 | 1012.1 |
| 20260831150632 | 76 | 158 | 0.0 | 0.0 | 0.00 | 0.00 | 0.00 | 99 | 1012.1 |
| 20260831150014 | 76 | 145 | 0.0 | 0.0 | 0.00 | 0.00 | 0.00 | 99 | 1012.1 |
| 20260831145441 | 76 | 144 | 0.0 | 0.9 | 0.00 | 0.00 | 0.00 | 99 | 1012.1 |
| 20260831144823 | 75 | 140 | 0.0 | 0.0 | 0.00 | 0.00 | 0.00 | 99 | 1012.1 |
| 20260831144217 | 75 | 149 | 0.0 | 0.0 | 0.00 | 0.00 | 0.00 | 99 | 1012.1 |
| 20260831143032 | 74 | 145 | 0.0 | 0.0 | 0.00 | 0.00 | 0.00 | 99 | 1012.1 |
| 20260831142410 | 74 | 149 | 0.0 | 0.0 | 0.00 | 0.00 | 0.00 | 99 | 1012.1 |
| 20260831141247 | 74 | 325 | 0.9 | 0.9 | 0.00 | 0.00 | 0.00 | 99 | 1012.1 |
| 20260831140651 | 74 | 146 | 0.0 | 0.0 | 0.00 | 0.00 | 0.00 | 99 | 1012.1 |
| 20260831135433 | 74 | 148 | 0.0 | 0.0 | 0.00 | 0.00 | 0.00 | 99 | 1011.8 |
| 20260831134848 | 73 | 173 | 0.9 | 0.9 | 0.00 | 0.00 | 0.00 | 99 | 1011.8 |
| 20260831134212 | 73 | 149 | 0.0 | 0.0 | 0.00 | 0.00 | 0.00 | 99 | 1011.8 |
| 20260831133646 | 73 | 132 | 0.0 | 0.0 | 0.00 | 0.00 | 0.00 | 99 | 1011.8 |
| 20260831133036 | 73 | 93 | 0.0 | 0.0 | 0.00 | 0.00 | 0.00 | 99 | 1011.8 |
| 20260831132448 | 72 | 173 | 0.0 | 0.0 | 0.00 | 0.00 | 0.00 | 99 | 1011.8 |
| 20260831131848 | 72 | 149 | 0.0 | 0.0 | 0.00 | 0.00 | 0.00 | 99 | 1011.5 |
| 20260831131239 | 72 | 151 | 0.0 | 0.0 | 0.00 | 0.00 | 0.00 | 99 | 1011.8 |
| 20260831130638 | 72 | 142 | 0.0 | 0.0 | 0.00 | 0.00 | 0.00 | 99 | 1011.8 |
| 20260831130043 | 72 | 133 | 0.0 | 0.0 | 0.00 | 0.00 | 0.00 | 99 | 1011.5 |
| 20260831125406 | 72 | 133 | 0.0 | 0.0 | 0.00 | 0.00 | 0.00 | 99 | 1011.8 |
| 20260831124810 | 71 | 133 | 0.0 | 0.0 | 0.00 | 0.00 | 0.00 | 99 | 1011.8 |
| 20260831124230 | 71 | 138 | 0.0 | 0.0 | 0.00 | 0.00 | 0.00 | 99 | 1011.8 |
| 20260831123035 | 71 | 125 | 0.0 | 0.0 | 0.00 | 0.00 | 0.00 | 99 | 1011.5 |
| 20260831122413 | 71 | 133 | 0.0 | 0.0 | 0.00 | 0.00 | 0.00 | 99 | 1011.5 |
| 20260831121833 | 71 | 130 | 0.0 | 0.0 | 0.00 | 0.00 | 0.00 | 99 | 1011.5 |
| 20260831121237 | 71 | 129 | 0.0 | 0.0 | 0.00 | 0.00 | 0.00 | 99 | 1011.5 |
| 20260831120649 | 71 | 132 | 0.0 | 0.0 | 0.00 | 0.00 | 0.00 | 99 | 1011.5 |
| 20260831120024 | 70 | 132 | 0.0 | 0.0 | 0.00 | 0.00 | 0.00 | 99 | 1011.8 |
| 20260831115442 | 70 | 132 | 0.0 | 0.0 | 0.00 | 0.00 | 0.00 | 99 | 1011.8 |
| 20260831114222 | 70 | 127 | 0.0 | 0.0 | 0.00 | 0.00 | 0.00 | 99 | 1011.5 |
| 20260831113636 | 70 | 126 | 0.0 | 0.0 | 0.00 | 0.00 | 0.00 | 99 | 1011.5 |
| 20260831113049 | 70 | 117 | 0.0 | 0.0 | 0.00 | 0.00 | 0.00 | 99 | 1011.1 |
| 20260831112411 | 70 | 117 | 0.0 | 0.0 | 0.00 | 0.00 | 0.00 | 99 | 1011.1 |
| 20260831111221 | 70 | 129 | 0.0 | 0.0 | 0.00 | 0.00 | 0.00 | 99 | 1011.1 |
| 20260831110608 | 70 | 121 | 0.0 | 0.0 | 0.00 | 0.00 | 0.00 | 99 | 1011.1 |
| 20260831110042 | 70 | 126 | 0.0 | 0.0 | 0.00 | 0.00 | 0.00 | 99 | 1010.8 |
| 20260831104852 | 69 | 123 | 0.0 | 0.0 | 0.00 | 0.00 | 0.00 | 99 | 1010.8 |
| 20260831104229 | 69 | 123 | 0.0 | 0.0 | 0.00 | 0.00 | 0.00 | 99 | 1010.8 |
| 20260831103641 | 69 | 122 | 0.0 | 0.0 | 0.00 | 0.00 | 0.00 | 99 | 1010.8 |
| 20260831103026 | 69 | 123 | 0.0 | 0.0 | 0.00 | 0.00 | 0.00 | 99 | 1010.8 |
| 20260831102417 | 69 | 127 | 0.0 | 0.0 | 0.00 | 0.00 | 0.00 | 99 | 1010.4 |
| 20260831101839 | 69 | 126 | 0.0 | 0.0 | 0.00 | 0.00 | 0.00 | 99 | 1010.8 |
| 20260831101226 | 69 | 124 | 0.0 | 0.0 | 0.00 | 0.00 | 0.00 | 99 | 1010.8 |
| 20260831100629 | 69 | 125 | 0.0 | 0.0 | 0.00 | 0.00 | 0.00 | 99 | 1010.8 |
| 20260831100049 | 69 | 124 | 0.0 | 0.0 | 0.00 | 0.00 | 0.00 | 99 | 1010.4 |
| 20260831094241 | 69 | 131 | 0.0 | 0.0 | 0.00 | 0.00 | 0.00 | 99 | 1010.8 |
| 20260831093645 | 69 | 131 | 0.0 | 0.0 | 0.00 | 0.00 | 0.00 | 99 | 1010.4 |
| 20260831093047 | 69 | 131 | 0.0 | 0.0 | 0.00 | 0.00 | 0.00 | 99 | 1010.8 |
| 20260831092425 | 69 | 130 | 0.0 | 0.0 | 0.00 | 0.00 | 0.00 | 99 | 1010.8 |
| 20260831091841 | 70 | 130 | 0.0 | 0.0 | 0.00 | 0.00 | 0.00 | 99 | 1010.8 |
| 20260831090014 | 69 | 137 | 0.0 | 0.0 | 0.00 | 0.00 | 0.00 | 99 | 1010.8 |
| 20260831085446 | 69 | 137 | 0.0 | 0.0 | 0.00 | 0.00 | 0.00 | 99 | 1010.8 |
| 20260831084813 | 69 | 137 | 0.0 | 0.0 | 0.00 | 0.00 | 0.00 | 99 | 1010.8 |
| 20260831083627 | 69 | 137 | 0.0 | 0.0 | 0.00 | 0.00 | 0.00 | 99 | 1010.4 |
| 20260831083041 | 69 | 137 | 0.0 | 0.0 | 0.00 | 0.00 | 0.00 | 99 | 1010.4 |
| 20260831082423 | 69 | 137 | 0.0 | 0.0 | 0.00 | 0.00 | 0.00 | 99 | 1010.4 |
| 20260831081818 | 69 | 137 | 0.0 | 0.0 | 0.00 | 0.00 | 0.00 | 99 | 1010.4 |
| 20260831081213 | 69 | 137 | 0.0 | 0.0 | 0.00 | 0.00 | 0.00 | 99 | 1010.4 |
| 20260831080627 | 69 | 137 | 0.0 | 0.0 | 0.00 | 0.00 | 0.00 | 99 | 1010.4 |
| 20260831075429 | 69 | 137 | 0.0 | 0.0 | 0.00 | 0.00 | 0.00 | 99 | 1010.4 |
| 20260831074806 | 69 | 137 | 0.0 | 0.0 | 0.00 | 0.00 | 0.00 | 99 | 1010.1 |
| 20260831074237 | 70 | 137 | 0.0 | 0.0 | 0.00 | 0.00 | 0.00 | 99 | 1010.4 |
| 20260831073615 | 70 | 137 | 0.0 | 0.0 | 0.00 | 0.00 | 0.00 | 99 | 1010.4 |
| 20260831073040 | 70 | 137 | 0.0 | 0.0 | 0.00 | 0.00 | 0.00 | 99 | 1010.1 |
| 20260831071845 | 70 | 137 | 0.0 | 0.0 | 0.00 | 0.00 | 0.00 | 99 | 1010.4 |
| 20260831070648 | 70 | 137 | 0.0 | 0.0 | 0.00 | 0.00 | 0.00 | 99 | 1010.4 |
| 20260831070008 | 70 | 137 | 0.0 | 0.0 | 0.00 | 0.00 | 0.00 | 99 | 1010.4 |
| 20260831065444 | 70 | 137 | 0.0 | 0.0 | 0.00 | 0.00 | 0.00 | 99 | 1010.4 |
| 20260831064821 | 70 | 137 | 0.0 | 0.0 | 0.00 | 0.00 | 0.00 | 99 | 1010.4 |
| 20260831064208 | 70 | 137 | 0.0 | 0.0 | 0.00 | 0.00 | 0.00 | 99 | 1010.4 |
| 20260831063033 | 70 | 137 | 0.0 | 0.0 | 0.00 | 0.00 | 0.00 | 99 | 1010.4 |
| 20260831062429 | 70 | 137 | 0.0 | 0.0 | 0.00 | 0.00 | 0.00 | 99 | 1010.4 |
| 20260831061817 | 71 | 137 | 0.0 | 0.0 | 0.00 | 0.00 | 0.00 | 99 | 1010.4 |
| 20260831061236 | 71 | 137 | 0.0 | 0.0 | 0.00 | 0.00 | 0.00 | 99 | 1010.4 |
| 20260831060636 | 71 | 137 | 0.0 | 0.0 | 0.00 | 0.00 | 0.00 | 99 | 1010.8 |
| 20260831060024 | 71 | 137 | 0.0 | 0.0 | 0.00 | 0.00 | 0.00 | 99 | 1010.8 |
| 20260831055425 | 71 | 137 | 0.0 | 0.0 | 0.00 | 0.00 | 0.00 | 99 | 1011.1 |
| 20260831054840 | 71 | 137 | 0.0 | 0.0 | 0.00 | 0.00 | 0.00 | 99 | 1010.8 |
| 20260831054217 | 71 | 137 | 0.0 | 0.0 | 0.00 | 0.00 | 0.00 | 99 | 1010.8 |
| 20260831053621 | 71 | 137 | 0.0 | 0.0 | 0.00 | 0.00 | 0.00 | 99 | 1010.8 |
| 20260831053031 | 71 | 136 | 0.0 | 0.0 | 0.00 | 0.00 | 0.00 | 99 | 1010.8 |
| 20260831051825 | 71 | 137 | 0.0 | 0.0 | 0.00 | 0.00 | 0.00 | 99 | 1010.8 |
| 20260831050642 | 72 | 134 | 0.0 | 0.0 | 0.00 | 0.00 | 0.00 | 99 | 1010.8 |
| 20260831045438 | 71 | 132 | 0.0 | 0.0 | 0.00 | 0.00 | 0.00 | 99 | 1011.1 |
| 20260831044213 | 72 | 132 | 0.0 | 0.0 | 0.00 | 0.00 | 0.00 | 99 | 1010.8 |
| 20260831043638 | 72 | 132 | 0.0 | 0.0 | 0.00 | 0.00 | 0.00 | 99 | 1010.8 |
| 20260831043049 | 72 | 132 | 0.0 | 0.0 | 0.00 | 0.00 | 0.00 | 99 | 1010.8 |
| 20260831042416 | 72 | 129 | 0.0 | 0.0 | 0.00 | 0.00 | 0.00 | 99 | 1010.8 |
| 20260831041832 | 72 | 129 | 0.0 | 0.0 | 0.00 | 0.00 | 0.00 | 99 | 1011.1 |
| 20260831040635 | 72 | 128 | 0.0 | 0.0 | 0.00 | 0.00 | 0.00 | 99 | 1011.1 |
| 20260831040028 | 72 | 120 | 0.0 | 0.0 | 0.00 | 0.00 | 0.05 | 99 | 1011.1 |
| 20260831034829 | 72 | 100 | 0.0 | 0.0 | 0.00 | 0.00 | 0.05 | 99 | 1011.1 |
| 20260831034219 | 72 | 145 | 0.0 | 0.0 | 0.00 | 0.00 | 0.05 | 99 | 1011.1 |
| 20260831033644 | 72 | 145 | 0.0 | 0.0 | 0.00 | 0.00 | 0.05 | 99 | 1011.1 |
| 20260831033012 | 73 | 145 | 0.0 | 0.0 | 0.00 | 0.00 | 0.05 | 99 | 1011.1 |
| 20260831032451 | 73 | 145 | 0.0 | 0.0 | 0.00 | 0.00 | 0.05 | 99 | 1011.1 |
| 20260831031813 | 73 | 145 | 0.0 | 0.0 | 0.00 | 0.00 | 0.05 | 99 | 1011.1 |
| 20260831031234 | 73 | 145 | 0.0 | 0.0 | 0.00 | 0.00 | 0.05 | 99 | 1011.1 |
| 20260831030621 | 73 | 145 | 0.0 | 0.0 | 0.00 | 0.00 | 0.05 | 99 | 1011.1 |
| 20260831025424 | 73 | 145 | 0.0 | 0.0 | 0.00 | 0.00 | 0.05 | 99 | 1011.1 |
| 20260831024226 | 74 | 145 | 0.0 | 0.0 | 0.00 | 0.00 | 0.05 | 99 | 1011.1 |
| 20260831023629 | 74 | 145 | 0.0 | 0.0 | 0.00 | 0.00 | 0.05 | 99 | 1011.1 |
| 20260831023010 | 74 | 145 | 0.0 | 0.0 | 0.00 | 0.00 | 0.05 | 99 | 1011.1 |
| 20260831022426 | 74 | 145 | 0.0 | 0.0 | 0.00 | 0.00 | 0.05 | 99 | 1011.1 |
| 20260831021811 | 74 | 145 | 0.0 | 0.0 | 0.00 | 0.00 | 0.05 | 99 | 1011.1 |
| 20260831021246 | 74 | 145 | 0.0 | 0.0 | 0.00 | 0.00 | 0.05 | 99 | 1011.1 |
| 20260831020640 | 74 | 145 | 0.0 | 0.0 | 0.00 | 0.00 | 0.05 | 99 | 1010.8 |
| 20260831015435 | 74 | 141 | 0.0 | 0.0 | 0.00 | 0.00 | 0.05 | 99 | 1010.8 |
| 20260831014807 | 74 | 141 | 0.0 | 0.0 | 0.00 | 0.00 | 0.05 | 99 | 1011.1 |
| 20260831014231 | 75 | 148 | 0.0 | 0.0 | 0.00 | 0.00 | 0.05 | 99 | 1011.1 |
| 20260831013622 | 74 | 142 | 0.0 | 0.0 | 0.00 | 0.00 | 0.05 | 99 | 1011.1 |
| 20260831013049 | 74 | 143 | 0.0 | 0.0 | 0.00 | 0.00 | 0.05 | 99 | 1010.8 |
| 20260831012433 | 74 | 145 | 0.0 | 0.0 | 0.00 | 0.00 | 0.05 | 99 | 1010.8 |
| 20260831011251 | 75 | 138 | 0.0 | 0.0 | 0.00 | 0.00 | 0.05 | 99 | 1010.8 |
| 20260831010633 | 75 | 139 | 0.0 | 0.0 | 0.00 | 0.00 | 0.05 | 99 | 1010.8 |
| 20260831010048 | 75 | 140 | 0.0 | 0.0 | 0.00 | 0.00 | 0.05 | 98 | 1010.8 |
| 20260831005445 | 75 | 142 | 0.0 | 0.0 | 0.00 | 0.00 | 0.05 | 98 | 1010.8 |
| 20260831004839 | 75 | 138 | 0.0 | 0.0 | 0.00 | 0.00 | 0.05 | 98 | 1010.4 |
| 20260831004244 | 75 | 128 | 0.0 | 0.0 | 0.00 | 0.00 | 0.05 | 98 | 1010.4 |
| 20260831003639 | 75 | 134 | 0.0 | 0.0 | 0.00 | 0.00 | 0.05 | 97 | 1010.1 |
| 20260831003016 | 76 | 129 | 0.0 | 0.0 | 0.00 | 0.00 | 0.05 | 97 | 1010.1 |
| 20260831001838 | 77 | 146 | 0.0 | 0.0 | 0.00 | 0.00 | 0.05 | 96 | 1010.1 |
| 20260831001209 | 77 | 138 | 0.0 | 0.0 | 0.00 | 0.00 | 0.05 | 94 | 1010.1 |
| 20260831000649 | 78 | 143 | 0.0 | 0.0 | 0.00 | 0.00 | 0.05 | 93 | 1010.1 |
| 20260831000024 | 79 | 141 | 0.0 | 0.0 | 0.00 | 0.00 | 0.05 | 92 | 1010.1 |
| 20260830234847 | 81 | 143 | 0.0 | 0.0 | 0.00 | 0.00 | 0.05 | 89 | 1009.8 |
| 20260830234227 | 82 | 146 | 0.0 | 0.0 | 0.00 | 0.00 | 0.05 | 86 | 1010.1 |
| 20260830233608 | 83 | 138 | 0.0 | 0.0 | 0.00 | 0.00 | 0.05 | 85 | 1010.1 |
| 20260830232412 | 83 | 138 | 0.0 | 0.0 | 0.00 | 0.00 | 0.05 | 86 | 1009.8 |
| 20260830231227 | 83 | 138 | 0.0 | 0.0 | 0.00 | 0.00 | 0.05 | 87 | 1009.8 |
| 20260830230609 | 84 | 133 | 0.0 | 0.0 | 0.00 | 0.00 | 0.05 | 86 | 1009.4 |
| 20260830230024 | 84 | 124 | 0.0 | 0.0 | 0.00 | 0.00 | 0.05 | 85 | 1009.4 |
| 20260830224842 | 84 | 143 | 0.0 | 0.0 | 0.00 | 0.00 | 0.05 | 89 | 1009.4 |
| 20260830224245 | 83 | 144 | 0.0 | 0.0 | 0.00 | 0.00 | 0.05 | 89 | 1009.4 |
| 20260830223615 | 84 | 148 | 0.0 | 0.0 | 0.00 | 0.00 | 0.05 | 89 | 1009.8 |
| 20260830222427 | 83 | 139 | 0.0 | 0.0 | 0.00 | 0.00 | 0.05 | 90 | 1009.4 |
| 20260830221823 | 83 | 162 | 0.0 | 0.0 | 0.00 | 0.00 | 0.05 | 90 | 1009.8 |
| 20260830215444 | 81 | 143 | 0.0 | 0.0 | 0.00 | 0.00 | 0.05 | 92 | 1009.8 |
| 20260830214824 | 81 | 148 | 0.0 | 0.0 | 0.00 | 0.00 | 0.05 | 93 | 1010.4 |
| 20260830214234 | 81 | 162 | 0.0 | 0.0 | 0.00 | 0.00 | 0.05 | 93 | 1010.1 |
| 20260830213610 | 81 | 135 | 0.0 | 0.0 | 0.00 | 0.00 | 0.05 | 93 | 1010.1 |
| 20260830212447 | 81 | 152 | 0.0 | 0.0 | 0.00 | 0.00 | 0.05 | 93 | 1010.1 |
| 20260830211844 | 80 | 137 | 0.0 | 0.0 | 0.00 | 0.00 | 0.05 | 93 | 1010.1 |
| 20260830211221 | 80 | 139 | 0.0 | 0.0 | 0.00 | 0.00 | 0.05 | 93 | 1010.4 |
| 20260830210613 | 80 | 142 | 0.0 | 0.0 | 0.00 | 0.00 | 0.05 | 94 | 1010.1 |
| 20260830210045 | 80 | 159 | 0.0 | 0.0 | 0.00 | 0.00 | 0.05 | 93 | 1010.4 |
| 20260830205430 | 79 | 163 | 0.0 | 0.0 | 0.00 | 0.00 | 0.05 | 94 | 1010.4 |
| 20260830204832 | 79 | 134 | 0.0 | 0.0 | 0.00 | 0.00 | 0.05 | 93 | 1010.4 |
| 20260830204247 | 79 | 139 | 0.0 | 0.0 | 0.00 | 0.00 | 0.05 | 92 | 1010.4 |
| 20260830203641 | 80 | 159 | 0.0 | 0.9 | 0.00 | 0.00 | 0.05 | 90 | 1010.4 |
| 20260830203047 | 80 | 121 | 0.0 | 0.0 | 0.00 | 0.00 | 0.04 | 87 | 1010.8 |
| 20260830202427 | 80 | 163 | 0.9 | 1.7 | 0.00 | 0.00 | 0.04 | 81 | 1011.1 |
| 20260830201822 | 81 | 324 | 2.6 | 2.6 | 0.00 | 0.00 | 0.04 | 79 | 1010.8 |
| 20260830201226 | 83 | 149 | 0.0 | 0.0 | 0.00 | 0.00 | 0.04 | 84 | 1010.8 |
| 20260830200650 | 84 | 166 | 0.9 | 0.9 | 0.00 | 0.00 | 0.04 | 77 | 1010.8 |
| 20260830200025 | 86 | 19 | 1.7 | 2.6 | 0.00 | 0.00 | 0.04 | 79 | 1010.8 |
| 20260830195416 | 88 | 165 | 0.0 | 0.0 | 0.00 | 0.00 | 0.04 | 83 | 1011.1 |
| 20260830194833 | 86 | 186 | 0.9 | 0.9 | 0.00 | 0.00 | 0.04 | 87 | 1010.8 |
| 20260830194212 | 82 | 175 | 0.0 | 0.0 | 0.00 | 0.00 | 0.04 | 92 | 1010.8 |
| 20260830193608 | 82 | 131 | 0.0 | 0.0 | 0.00 | 0.00 | 0.04 | 90 | 1010.8 |
| 20260830193024 | 82 | 149 | 0.9 | 0.9 | 0.00 | 0.00 | 0.04 | 96 | 1010.8 |
| 20260830192415 | 79 | 138 | 0.0 | 0.9 | 0.00 | 0.00 | 0.04 | 94 | 1011.1 |
| 20260830191819 | 80 | 145 | 0.0 | 0.0 | 0.00 | 0.00 | 0.04 | 90 | 1011.1 |
| 20260830191225 | 82 | 104 | 0.0 | 0.9 | 0.00 | 0.00 | 0.04 | 84 | 1010.8 |
| 20260830190633 | 88 | 154 | 0.0 | 0.9 | 0.00 | 0.00 | 0.00 | 73 | 1011.1 |
| 20260830185433 | 90 | 302 | 1.7 | 1.7 | 0.00 | 0.00 | 0.00 | 67 | 1010.8 |
| 20260830184830 | 91 | 218 | 0.9 | 0.9 | 0.00 | 0.00 | 0.00 | 64 | 1010.8 |
| 20260830183639 | 91 | 228 | 1.7 | 2.6 | 0.00 | 0.00 | 0.00 | 64 | 1011.1 |